Miscellaneous Local Product
Issued by NWS Hastings, NE

Home | Current Version | Previous Version | Graphics & Text | Print | Product List | Glossary On
Versions: 1 2 3 4 5 6 7 8 9 10 11 12 13 14 15 16 17 18 19 20 21 22 23 24 25 26 27 28 29 30 31 32 33 34 35 36 37 38 39 40 41 42 43 44 45 46 47 48 49 50
957
AXUS43 KGID 160702
MISGRI

GID CWA HOURLY WEATHER ROUNDUP
NATIONAL WEATHER SERVICE HASTINGS NE
200 AM CDT MON OCT 16 2017

NOTE: "FAIR" INDICATES FEW OR NO CLOUDS BELOW 12,000 FEET WITH NO
SIGNIFICANT WEATHER AND/OR OBSTRUCTIONS TO VISIBILITY.

...SOUTH CENTRAL NEBRASKA...

CITY           SKY/WX    TMP DP  RH WIND       PRES   REMARKS
GRAND ISLAND   CLEAR     41  37  86 SW5       30.36F
HASTINGS       CLEAR     40  34  79 CALM      30.37S
KEARNEY        CLEAR     39  33  79 CALM      30.36F
ORD            CLEAR     33  28  81 W3        30.33S
YORK           CLEAR     39  36  87 CALM      30.36S
AURORA         CLEAR     38  35  87 SW6       30.36S WCI  33
LEXINGTON      CLEAR     36  32  85 CALM      30.36S
HOLDREGE       CLEAR     39  30  72 CALM      30.36S
HEBRON         PTCLDY    38  36  92 CALM      30.37S

...NEBRASKA PANHANDLE...

CITY           SKY/WX    TMP DP  RH WIND       PRES   REMARKS
CHADRON        CLOUDY    28  23  81 CALM      30.26F
ALLIANCE       CLOUDY    37  27  67 S10       30.29F WCI  30
SCOTTSBLUFF    CLOUDY    34  26  72 E5        30.30F WCI  30
SIDNEY         CLOUDY    29  24  82 W7        30.34F WCI  22

...WESTERN AND NORTH CENTRAL NEBRASKA...

CITY           SKY/WX    TMP DP  RH WIND       PRES   REMARKS
VALENTINE      CLEAR     35  30  82 SW5       30.29F WCI  31
AINSWORTH      CLEAR     35  30  83 SW6       30.31F WCI  30
ONEILL         CLEAR     37  35  91 SW3       30.31F
BROKEN BOW     CLEAR     32  29  88 CALM      30.34F
IMPERIAL       CLOUDY    37  27  67 W3        30.36F
NORTH PLATTE   CLEAR     33  29  85 NE3       30.35F
MCCOOK         CLEAR     35  31  85 CALM      30.36F

...EASTERN NEBRASKA...

CITY           SKY/WX    TMP DP  RH WIND       PRES   REMARKS
NORFOLK        CLEAR     37  33  85 CALM      30.32S
SO SIOUX CITY  CLEAR     39  34  82 NW3       30.31S
TEKAMAH        CLEAR     38  34  85 W3        30.32S
COLUMBUS       CLEAR     33  31  92 CALM      30.35S
ALBION         CLEAR     35  32  91 CALM      30.34S
OMAHA EPPLEY   CLEAR     43  37  79 SE3       30.34S
OFFUTT AFB     CLEAR     37  36  93 CALM      30.33S
MILLARD        CLEAR     40  39  96 CALM      30.34S
LINCOLN        CLEAR     38  35  89 CALM      30.37R
NEBRASKA CITY  CLEAR     44  36  73 W8        30.35R
BEATRICE       CLEAR     39  35  87 CALM      30.37R
FALLS CITY     CLEAR     38  36  92 NW3       30.36R

...NORTHERN KANSAS...

CITY           SKY/WX    TMP DP  RH WIND       PRES   REMARKS
GOODLAND       CLEAR     47  27  45 SW12      30.37F
HILL CITY      CLEAR     37  34  89 W3        30.39S
NORTON         SUNNY     37  28  70 SW7       30.36F WCI  32
PHILLIPSBURG   CLEAR     37  32  81 W5        30.37S WCI  34
SMITH CENTER   CLEAR     37  32  81 CALM      30.38S
HAYS           CLEAR     36  34  92 W3        30.40S
RUSSELL        CLEAR     41  36  82 SW8       30.38S
CONCORDIA      CLEAR     45  36  70 CALM      30.37R
SALINA         CLEAR     44  39  82 S3        30.39S
TOPEKA         CLEAR     40  39  97 CALM      30.38R



USA.gov is the U.S. government's official web portal to all federal, state and local government web resources and services.